Aurora, NE

3:00 AM CDT on July 25, 2017 (GMT -0500)
Aurora Municipal

Weather History for KAUH - November, 2013

Change the Weather History Date:

Thursday, November 14, 2013

  Actual Average Record
Temperature  
Mean Temperature 46 °F -  
Max Temperature 61 °F 48 °F 71 °F (1990)
Min Temperature 31 °F 26 °F 3 °F (1986)
Degree Days  
Heating Degree Days 19    
Moisture  
Dew Point 34 °F    
Average Humidity 71    
Maximum Humidity 92    
Minimum Humidity 44    
Precipitation  
Precipitation 0.00 in - - ()
Sea Level Pressure  
Sea Level Pressure 29.92 in    
Wind  
Wind Speed 7 mph (WSW)    
Max Wind Speed 18 mph    
Max Gust Speed 21 mph    
Visibility 10 miles    
Events      
Averages and records for this station are not official NWS values.
T = Trace of Precipitation, MM = Missing Value Source: NWS Daily Summary

Daily Weather History Graph

Daily Weather History Graph

Search for Another Location

Airport or City:

Trip Planner

Search our weather history database for the weather conditions in past years. The results will help you decide how hot, cold, wet, or windy it might be!

Date:

Astronomy

Nov. 14, 2013 Rise Set
Actual Time 7:18 AM CST 5:14 PM CST
Civil Twilight 6:48 AM CST 5:43 PM CST
Nautical Twilight 6:15 AM CST 6:16 PM CST
Astronomical Twilight 5:43 AM CST 6:49 PM CST
Moon 3:37 PM CST (11/14) 4:13 AM CST (11/14)
Length of Visible Light 10h 54m
Length of Day
9h 55m
Waxing Gibbous, 92% of the Moon is Illuminated
Nov 14
Waxing Gibbous
Nov 17
Full
Nov 25
Last Quarter
Dec 2
New
Dec 9
First Quarter

Hourly Weather History & Observations

Time (CST) Temp. Windchill Dew Point Humidity Pressure Visibility Wind Dir Wind Speed Gust Speed Precip Events Conditions
12:15 AM 41.2 °F 34.5 °F 30.9 °F 67% 29.93 in 10.0 mi SSW 11.5 mph - N/A   Clear
12:35 AM 40.5 °F 33.6 °F 30.9 °F 69% 29.93 in 10.0 mi SSW 11.5 mph - N/A   Clear
12:55 AM 40.5 °F 33.2 °F 30.7 °F 68% 29.92 in 10.0 mi SSW 12.7 mph - N/A   Clear
1:15 AM 40.1 °F 34.1 °F 30.4 °F 68% 29.92 in 10.0 mi SSW 9.2 mph - N/A   Clear
1:35 AM 39.7 °F 33.2 °F 30.6 °F 70% 29.92 in 10.0 mi SSW 10.4 mph - N/A   Clear
1:55 AM 38.5 °F 32.7 °F 30.2 °F 72% 29.92 in 10.0 mi SW 8.1 mph - N/A   Clear
2:15 AM 35.1 °F - 28.8 °F 78% 29.92 in 10.0 mi Calm Calm - N/A   Clear
2:35 AM 35.6 °F 31.7 °F 29.1 °F 77% 29.92 in 10.0 mi SSW 4.6 mph - N/A   Clear
2:55 AM 36.5 °F 31.0 °F 29.7 °F 76% 29.91 in 10.0 mi SSW 6.9 mph - N/A   Clear
3:15 AM 36.9 °F 31.4 °F 30.2 °F 77% 29.91 in 10.0 mi SSW 6.9 mph - N/A   Clear
3:35 AM 35.4 °F - 29.3 °F 78% 29.91 in 10.0 mi Calm Calm - N/A   Clear
3:55 AM 34.7 °F 28.8 °F 29.3 °F 81% 29.90 in 10.0 mi SSW 6.9 mph - N/A   Clear
4:15 AM 36.1 °F 31.4 °F 29.5 °F 77% 29.90 in 10.0 mi SSW 5.8 mph - N/A   Clear
4:35 AM 36.5 °F 33.9 °F 29.5 °F 76% 29.91 in 10.0 mi South 3.5 mph - N/A   Clear
4:55 AM 34.0 °F - 28.8 °F 81% 29.91 in 10.0 mi Calm Calm - N/A   Clear
5:15 AM 34.0 °F 31.0 °F 28.9 °F 82% 29.91 in 10.0 mi SSW 3.5 mph - N/A   Clear
5:35 AM 33.1 °F 30.0 °F 28.6 °F 84% 29.91 in 10.0 mi SSW 3.5 mph - N/A   Clear
5:55 AM 34.9 °F 29.0 °F 28.9 °F 79% 29.91 in 10.0 mi SW 6.9 mph - N/A   Clear
6:15 AM 32.7 °F 28.3 °F 27.9 °F 82% 29.90 in 10.0 mi WSW 4.6 mph - N/A   Clear
6:35 AM 32.5 °F 28.1 °F 28.2 °F 84% 29.90 in 10.0 mi SW 4.6 mph - N/A   Clear
6:55 AM 32.9 °F 28.5 °F 28.4 °F 84% 29.92 in 10.0 mi WSW 4.6 mph - N/A   Clear
7:15 AM 31.5 °F 26.8 °F 28.0 °F 87% 29.92 in 10.0 mi West 4.6 mph - N/A   Clear
7:35 AM 31.8 °F - 28.2 °F 87% 29.93 in 10.0 mi Calm Calm - N/A   Clear
7:55 AM 32.9 °F - 29.7 °F 88% 29.93 in 10.0 mi Calm Calm - N/A   Clear
8:15 AM 33.8 °F 30.8 °F 30.6 °F 88% 29.94 in 10.0 mi WSW 3.5 mph - N/A   Clear
8:35 AM 33.8 °F - 30.9 °F 89% 29.95 in 10.0 mi Calm Calm - N/A   Clear
8:55 AM 37.0 °F 31.6 °F 33.6 °F 87% 29.96 in 10.0 mi NNW 6.9 mph - N/A   Clear
9:15 AM 41.5 °F 37.8 °F 36.1 °F 81% 29.95 in 10.0 mi North 5.8 mph - N/A   Clear
9:35 AM 44.1 °F 39.5 °F 36.7 °F 75% 29.96 in 10.0 mi North 8.1 mph - N/A   Clear
9:55 AM 46.0 °F 41.0 °F 36.9 °F 70% 29.96 in 10.0 mi North 10.4 mph - N/A   Clear
10:15 AM 48.0 °F - 37.4 °F 67% 29.96 in 10.0 mi North 11.5 mph - N/A   Clear
10:35 AM 50.5 °F - 38.5 °F 63% 29.96 in 10.0 mi North 12.7 mph - N/A   Clear
10:55 AM 52.7 °F - 39.2 °F 60% 29.96 in 10.0 mi North 15.0 mph - N/A   Clear
11:15 AM 54.0 °F - 39.6 °F 58% 29.96 in 10.0 mi NNE 13.8 mph 20.7 mph N/A   Clear
11:35 AM 54.7 °F - 39.4 °F 56% 29.95 in 10.0 mi NNE 13.8 mph - N/A   Clear
11:55 AM 56.5 °F - 39.6 °F 53% 29.94 in 10.0 mi NNE 17.3 mph - N/A   Clear
12:15 PM 57.2 °F - 39.7 °F 52% 29.93 in 10.0 mi NNE 18.4 mph - N/A   Clear
12:35 PM 56.1 °F - 39.6 °F 54% 29.93 in 10.0 mi NNE 13.8 mph - N/A   Clear
12:55 PM 58.8 °F - 39.9 °F 50% 29.91 in 10.0 mi ENE 11.5 mph 17.3 mph N/A   Clear
1:15 PM 59.0 °F - 38.7 °F 47% 29.91 in 10.0 mi NE 10.4 mph - N/A   Clear
1:35 PM 59.9 °F - 39.2 °F 46% 29.90 in 10.0 mi NE 6.9 mph - N/A   Clear
1:55 PM 60.6 °F - 39.2 °F 45% 29.90 in 10.0 mi North 11.5 mph 17.3 mph N/A   Clear
2:15 PM 61.0 °F - 39.6 °F 45% 29.90 in 10.0 mi North 10.4 mph - N/A   Scattered Clouds
2:35 PM 60.6 °F - 39.7 °F 46% 29.90 in 10.0 mi NE 9.2 mph - N/A   Scattered Clouds
2:55 PM 60.6 °F - 39.4 °F 45% 29.89 in 10.0 mi North 10.4 mph - N/A   Scattered Clouds
3:15 PM 60.4 °F - 38.5 °F 44% 29.89 in 10.0 mi North 9.2 mph - N/A   Clear
3:35 PM 59.4 °F - 38.5 °F 46% 29.90 in 10.0 mi North 11.5 mph - N/A   Clear
3:55 PM 58.8 °F - 37.9 °F 46% 29.90 in 10.0 mi North 5.8 mph - N/A   Clear
4:15 PM 58.3 °F - 37.6 °F 46% 29.90 in 10.0 mi North 6.9 mph - N/A   Clear
4:35 PM 56.5 °F - 37.8 °F 50% 29.90 in 10.0 mi North 4.6 mph - N/A   Clear
4:55 PM 54.5 °F - 37.4 °F 52% 29.90 in 10.0 mi Calm Calm - N/A   Clear
5:15 PM 54.3 °F - 37.4 °F 53% 29.90 in 10.0 mi Calm Calm - N/A   Clear
5:35 PM 51.4 °F - 37.6 °F 59% 29.90 in 10.0 mi Calm Calm - N/A   Clear
5:55 PM 48.4 °F - 36.0 °F 62% 29.90 in 10.0 mi Calm Calm - N/A   Clear
6:15 PM 47.8 °F - 36.0 °F 63% 29.90 in 10.0 mi Calm Calm - N/A   Clear
6:35 PM 44.6 °F - 35.4 °F 70% 29.91 in 10.0 mi Calm Calm - N/A   Clear
6:55 PM 46.8 °F - 36.7 °F 68% 29.91 in 10.0 mi South 4.6 mph - N/A   Clear
7:15 PM 45.7 °F 42.7 °F 36.1 °F 69% 29.91 in 10.0 mi SSW 5.8 mph - N/A   Clear
7:35 PM 42.1 °F 37.7 °F 35.1 °F 76% 29.91 in 10.0 mi SW 6.9 mph - N/A   Clear
7:55 PM 40.5 °F 36.5 °F 34.7 °F 80% 29.90 in 10.0 mi SW 5.8 mph - N/A   Clear
8:15 PM 39.0 °F 34.8 °F 33.6 °F 81% 29.91 in 10.0 mi SW 5.8 mph - N/A   Clear
8:35 PM 38.7 °F 36.3 °F 34.5 °F 85% 29.91 in 10.0 mi SW 3.5 mph - N/A   Clear
8:55 PM 37.2 °F 33.6 °F 33.6 °F 87% 29.91 in 10.0 mi SW 4.6 mph - N/A   Clear
9:15 PM 37.0 °F 32.4 °F 33.4 °F 87% 29.91 in 10.0 mi SW 5.8 mph - N/A   Clear
9:35 PM 36.7 °F 32.0 °F 33.6 °F 89% 29.91 in 10.0 mi SW 5.8 mph - N/A   Clear
9:55 PM 36.1 °F 32.3 °F 33.4 °F 90% 29.91 in 10.0 mi WSW 4.6 mph - N/A   Clear
10:15 PM 36.9 °F 33.1 °F 34.0 °F 89% 29.91 in 10.0 mi SW 4.6 mph - N/A   Clear
10:35 PM 37.4 °F 32.1 °F 34.2 °F 88% 29.90 in 10.0 mi SW 6.9 mph - N/A   Clear
10:55 PM 36.7 °F 30.5 °F 33.3 °F 87% 29.90 in 10.0 mi SW 8.1 mph - N/A   Clear
11:15 PM 35.8 °F 30.1 °F 33.1 °F 90% 29.90 in 10.0 mi SW 6.9 mph - N/A   Clear
11:35 PM 35.2 °F 29.5 °F 33.1 °F 92% 29.89 in 10.0 mi SW 6.9 mph - N/A   Clear
11:55 PM 35.1 °F 29.3 °F 32.2 °F 89% 29.89 in 10.0 mi SW 6.9 mph - N/A   Clear